Weather History for Port Angeles, WA

Change the Weather History Date:

Saturday, October 26, 2013

  Actual Average Record
Temperature  
Mean Temperature 50 °F -  
Max Temperature 55 °F 55 °F 64 °F (1965)
Min Temperature 44 °F 41 °F 29 °F (1964)
Degree Days  
Heating Degree Days 16    
Moisture  
Dew Point 47 °F    
Average Humidity 89    
Maximum Humidity 97    
Minimum Humidity 69    
Precipitation  
Precipitation 0.00 in - - ()
Sea Level Pressure  
Sea Level Pressure 30.31 in    
Wind  
Wind Speed 3 mph (SE)    
Max Wind Speed 8 mph    
Max Gust Speed -    
Visibility 7 miles    
Events Rain    
Averages and records for this station are not official NWS values.
T = Trace of Precipitation, MM = Missing Value Source: NWS Daily Summary

Daily Weather History Graph

Daily Weather History Graph

Search for Another Location

Airport:

Trip Planner

Search our weather history database for the weather conditions in past years. The results will help you decide how hot, cold, wet, or windy it might be!

Date:

Astronomy

Oct. 26, 2013 Rise Set
Actual Time 7:50 AM PDT 6:04 PM PDT
Civil Twilight 7:18 AM PDT 6:36 PM PDT
Nautical Twilight 6:41 AM PDT 7:13 PM PDT
Astronomical Twilight 6:05 AM PDT 7:48 PM PDT
Moon No Moon Rise 2:13 PM PDT (10/26)
Length of Visible Light 11h 18m
Length of Day
10h 14m
Waning Gibbous, 52% of the Moon is Illuminated
Oct 26
Waning Gibbous
Oct 26
Last Quarter
Nov 3
New
Nov 9
First Quarter
Nov 17
Full

Hourly Weather History & Observations

Time (PDT) Temp. Windchill Dew Point Humidity Pressure Visibility Wind Dir Wind Speed Gust Speed Precip Events Conditions
12:53 AM 48.9 °F - 46.9 °F 93% 30.34 in 6.0 mi NW 4.6 mph - N/A   Overcast
1:40 AM 48.9 °F - 48.0 °F 97% 30.34 in 6.0 mi WSW 3.5 mph - N/A   Overcast
1:49 AM 48.2 °F - 46.4 °F 93% 30.34 in 6.0 mi NW 3.5 mph - N/A   Overcast
1:53 AM 48.9 °F - 48.0 °F 97% 30.35 in 6.0 mi Calm Calm - N/A   Overcast
2:44 AM 50.0 °F - 48.0 °F 93% 30.34 in 4.0 mi Calm Calm - N/A   Overcast
2:53 AM 48.9 °F - 48.0 °F 97% 30.35 in 5.0 mi Calm Calm - N/A   Overcast
3:49 AM 50.0 °F - 48.2 °F 94% 30.33 in 8.0 mi Calm Calm - 0.00 in Rain Light Rain
3:53 AM 50.0 °F - 48.0 °F 93% 30.34 in 9.0 mi Calm Calm - 0.00 in   Overcast
4:53 AM 50.0 °F - 48.0 °F 93% 30.33 in 9.0 mi East 3.5 mph - 0.00 in   Overcast
5:29 AM 50.0 °F - 48.0 °F 93% 30.33 in 7.0 mi ESE 4.6 mph - N/A   Overcast
5:53 AM 50.0 °F - 48.0 °F 93% 30.34 in 6.0 mi ESE 5.8 mph - N/A   Overcast
6:21 AM 50.0 °F - 48.0 °F 93% 30.33 in 2.5 mi East 5.8 mph - N/A   Overcast
6:46 AM 50.0 °F - 48.0 °F 93% 30.33 in 3.0 mi ESE 5.8 mph - N/A   Overcast
6:53 AM 50.0 °F - 48.0 °F 93% 30.34 in 3.0 mi ESE 5.8 mph - N/A   Overcast
7:35 AM 48.9 °F - 48.0 °F 97% 30.32 in 6.0 mi South 5.8 mph - N/A   Overcast
7:53 AM 48.9 °F - 46.9 °F 93% 30.32 in 4.0 mi ENE 3.5 mph - N/A   Overcast
8:31 AM 48.9 °F - 46.9 °F 93% 30.34 in 3.0 mi Calm Calm - N/A   Mostly Cloudy
8:42 AM 48.9 °F - 46.9 °F 93% 30.34 in 3.0 mi Calm Calm - N/A   Mostly Cloudy
8:53 AM 50.0 °F - 48.0 °F 93% 30.34 in 4.0 mi East 3.5 mph - N/A   Overcast
9:04 AM 50.0 °F - 48.0 °F 93% 30.34 in 5.0 mi Calm Calm - N/A   Overcast
9:21 AM 50.0 °F - 48.0 °F 93% 30.35 in 4.0 mi Calm Calm - N/A   Overcast
9:25 AM 50.0 °F - 48.0 °F 93% 30.35 in 4.0 mi Calm Calm - N/A   Overcast
9:53 AM 50.0 °F - 48.0 °F 93% 30.35 in 5.0 mi SE 3.5 mph - N/A   Overcast
10:10 AM 51.1 °F - 48.0 °F 89% 30.35 in 5.0 mi ESE 3.5 mph - N/A   Overcast
10:53 AM 51.1 °F - 48.0 °F 89% 30.35 in 5.0 mi Calm Calm - N/A   Overcast
11:00 AM 51.1 °F - 48.0 °F 89% 30.34 in 5.0 mi Calm Calm - N/A   Overcast
11:20 AM 51.1 °F - 48.0 °F 89% 30.34 in 5.0 mi East 3.5 mph - N/A   Overcast
11:53 AM 52.0 °F - 48.0 °F 86% 30.35 in 6.0 mi East 4.6 mph - N/A   Overcast
12:53 PM 52.0 °F - 46.0 °F 80% 30.35 in 10.0 mi ENE 3.5 mph - N/A   Overcast
1:53 PM 52.0 °F - 46.0 °F 80% 30.33 in 10.0 mi ESE 4.6 mph - N/A   Overcast
2:53 PM 52.0 °F - 46.0 °F 80% 30.30 in 10.0 mi SE 5.8 mph - N/A   Overcast
3:53 PM 54.0 °F - 45.0 °F 72% 30.29 in 10.0 mi Calm Calm - N/A   Mostly Cloudy
4:05 PM 55.0 °F - 45.0 °F 69% 30.29 in 10.0 mi Calm Calm - N/A   Partly Cloudy
4:53 PM 54.0 °F - 45.0 °F 72% 30.26 in 10.0 mi East 3.5 mph - N/A   Clear
5:53 PM 48.9 °F - 44.1 °F 83% 30.27 in 10.0 mi NW 3.5 mph - N/A   Clear
6:24 PM 48.9 °F - 46.0 °F 90% 30.25 in 10.0 mi WSW 3.5 mph - N/A   Mostly Cloudy
6:53 PM 48.9 °F - 45.0 °F 86% 30.25 in 10.0 mi South 3.5 mph - N/A   Overcast
7:16 PM 48.0 °F - 44.1 °F 86% 30.23 in 10.0 mi South 8.1 mph - N/A   Scattered Clouds
7:53 PM 46.0 °F 43.9 °F 43.0 °F 89% 30.23 in 10.0 mi WSW 4.6 mph - N/A   Clear
8:53 PM 46.0 °F 43.9 °F 43.0 °F 89% 30.24 in 10.0 mi SW 4.6 mph - N/A   Clear
9:53 PM 44.1 °F 41.5 °F 42.1 °F 93% 30.24 in 8.0 mi WSW 4.6 mph - N/A   Scattered Clouds
10:04 PM 46.0 °F 43.9 °F 44.1 °F 93% 30.23 in 10.0 mi SSW 4.6 mph - N/A   Mostly Cloudy
10:53 PM 46.9 °F - 44.1 °F 90% 30.22 in 10.0 mi WSW 3.5 mph - N/A   Overcast
11:53 PM 48.9 °F - 45.0 °F 86% 30.20 in 10.0 mi WNW 5.8 mph - N/A   Overcast